Regional Weather Roundup
Issued by NWS

Home | Current Version | Previous Version | Text Only | Print | Product List | Glossary Off
Versions: 1 2 3 4 5 6 7 8 9 10 11 12 13 14 15 16 17 18 19 20 21 22 23 24 25 26 27 28 29 30 31 32 33 34 35 36 37 38 39 40 41 42 43 44 45 46 47 48 49 50

658
ASUS43 KLMK 170310
RWRKY
KENTUCKY REGIONAL WEATHER ROUNDUP
NATIONAL WEATHER SERVICE LOUISVILLE KY
1000 PM EST TUE JAN 16 2018

NOTE "FAIR" INDICATES FEW OR NO CLOUDS BELOW 12,000 FEET
WITH NO SIGNIFICANT WEATHER AND/OR OBSTRUCTIONS TO VISIBILITY.

KYZ001>023-026-027-061>063-070>075-170400-
WESTERN AND SOUTH CENTRAL KENTUCKY

CITY           SKY/WX    TMP DP  RH WIND       PRES   REMARKS
PADUCAH        CLOUDY    10   0  63 NW5       30.68S WCI   2
HENDERSON      FLURRIES   8   2  76 NW7       30.68S WCI  -3
OWENSBORO      FLURRIES   6   1  80 NW6       30.67S WCI  -4
HOPKINSVILLE   FAIR       4  -4  69 CALM      30.64R
BOWLING GREEN  CLOUDY     6  -2  69 N3        30.65R
GLASGOW        FAIR      -4  -8  85 CALM      30.61S
$$

KYZ024-025-028>034-038-045-046-053-170400-
NORTH CENTRAL KENTUCKY

CITY           SKY/WX    TMP DP  RH WIND       PRES   REMARKS
LOUISVILLE/SDF FLURRIES   8   0  69 NW7       30.63R WCI  -3
LOUISVILLE/LOU CLOUDY     8   0  69 NW7       30.63R WCI  -3
FORT KNOX      FLURRIES   5  -2  72 W5        30.59S WCI  -4
$$

KYZ035>037-039>044-047>052-055>060-089>105-170400-
NORTHEAST KENTUCKY

CITY           SKY/WX    TMP DP  RH WIND       PRES   REMARKS
LEXINGTON      CLOUDY     6   0  76 CALM      30.55S
COVINGTON      CLOUDY     8   3  80 W7        30.55R WCI  -3
FRANKFORT      CLOUDY     9  -1  64 NW6       30.57R WCI  -1
$$

KYZ054-064>069-076>088-106>120-170400-
SOUTHEAST KENTUCKY

CITY           SKY/WX    TMP DP  RH WIND       PRES   REMARKS
JACKSON        CLOUDY     8   3  80 NW7       30.50R WCI  -3
LONDON         MOCLDY     2  -1  88 CALM      30.54R
SOMERSET       FAIR       1  -4  78 CALM      30.60R
MIDDLESBORO    FLURRIES  14   8  77 NW9       30.52R WCI   2
MONTICELLO     FAIR      -9 -14  78 VRB7      30.60R WCI -24
$$





USA.gov is the U.S. government's official web portal to all federal, state and local government web resources and services.